Weather Roundup
Issued by NWS Chicago, IL

Home | Current Version | Previous Version | Graphics & Text | Print | Product List | Glossary On
Versions: 1 2 3 4 5 6 7 8 9 10 11 12 13 14 15 16 17 18 19 20 21 22 23 24 25 26 27 28 29 30 31 32 33 34 35 36 37 38 39 40 41 42 43 44 45 46 47 48 49 50
000
NZUS59 KLOT 010900
HRRLOT

CHICAGO AREA WEATHER ROUNDUP
NATIONAL WEATHER SERVICE CHICAGO/ROMEOVILLE IL
300 AM CST SUN FEB 01 2015

NOTE: "FAIR" INDICATES FEW OR NO CLOUDS BELOW 12,000 FEET WITH NO
SIGNIFICANT WEATHER AND/OR OBSTRUCTIONS TO VISIBILITY.

* THESE STATIONS ARE NOT UNDER NWS QUALITY CONTROL. THEY ALSO MAY NOT
  REPORT WEATHER SUCH AS PRECIPITATION OR FOG.

ILZ005-006-012>014-019>023-011000-
NORTHEAST ILLINOIS

CITY           SKY/WX    TMP DP  RH WIND       PRES   REMARKS
OHARE          LGT SNOW  31  29  92 E9        30.07F VSB 3/4 WCI  23
MIDWAY         LGT SNOW  33  31  92 E10       30.08F VSB 1   WCI  25
AURORA         LGT SNOW  32  29  88 E10       30.05F VSB 1   WCI  24
WAUKEGAN       LGT SNOW  29  28  96 NE15G22   30.09F VSB 3/4 WCI  18
DUPAGE AIRPORT LGT SNOW  31  29  92 E10       30.05F FOG     WCI  22
WHEELING       LGT SNOW  31  29  92 E9        30.10F VSB 3/4 WCI  23
NORTHERLY IS     N/A     31  30  96 E12         N/A  WCI  22
$$

WIZ051-052-058>065-066-070>072-011000-
SOUTHEAST WISCONSIN

CITY           SKY/WX    TMP DP  RH WIND       PRES   REMARKS
MILWAUKEE      LGT SNOW  27  23  85 NE22G30   30.13F FOG     WCI  13
KENOSHA*       LGT SNOW  29  26  89 E18       30.10F VSB 3/4 WCI  16
RACINE*        LGT SNOW  29  25  85 E14       30.14F FOG     WCI  18
$$

INZ001>003-010>013-019-020-011000-
NORTHWEST INDIANA

CITY           SKY/WX    TMP DP  RH WIND       PRES   REMARKS
GARY*          NOT AVBL
MICHIGAN CITY* NOT AVBL
RENSSELAER*    NOT AVBL
$$

LMZ740>746-011000-
SOUTHERN LAKE MICHIGAN

STATION/POSITION TIME  SKY/WX   TEMP WIND        PRES    VSBY
                                AIR  DIR/SP/G
                 (UTC)          (F)  (DEG/KT/KT) (MB)    (MI)
HARRISON CRIB    0800            31   80/ 12/ 13   N/A
BURNHAM HARBOR   0900            31   70/  9/  9   N/A
CALUMET HARBOR   0800            31   70/ 10/ 13   N/A
BURNS HARBOR     NOT AVBL
MICHIGAN CITY    0800            30   50/  7/  8   N/A
$$

ABBREVIATIONS USED IN REMARKS
   TC - TEMPERATURE IN CELSIUS
  WCI - WIND CHILL INDEX
   HX - HEAT INDEX
  VSB - VISIBILITY
$$



USA.gov is the U.S. government's official web portal to all federal, state and local government web resources and services.